#timestamp,LO_Frequency,Hit 
1504389615.1,286047000.3,N
1504389635.9,286046999.4,N
1504389655.7,286046999.4,N
1504389675.5,286047000.6,N
1504389695.3,286047001.1,N
1504389715.2,286047000.1,N
1504389735.0,286047002.2,N
1504389735.9,286047002.2,N
1504389755.7,286047005.3,N
1504389775.6,286047007.1,P
1504389795.4,286047004.4,N
1504389815.2,286047002.6,N
1504389835.1,286047001.4,N
1504389836.0,286047001.4,N
1504389855.8,286047002.7,N
1504389875.6,286046999.0,N
1504389895.5,286046998.5,N
1504389915.3,286046999.0,N
1504389935.1,286046995.7,N
1504389955.9,286046997.1,N
1504389975.7,286046995.3,N
1504389995.5,286046996.4,N
1504390015.4,286046995.1,N
1504390035.2,286046996.8,N
1504390055.0,286046999.0,N
1504390055.9,286046999.0,N
1504390075.8,286047001.0,N
1504390095.6,286047000.3,N
1504390115.4,286047002.0,N
1504390135.2,286047005.1,N
1504390155.1,286047007.3,N
1504390156.0,286047007.3,N
1504390175.8,286047005.1,N
1504390195.6,286047005.9,N
1504390215.5,286047003.6,N
1504390235.3,286047002.6,N
1504390255.1,286047001.6,N
1504390275.9,286047002.0,N
1504390295.7,286047001.6,N
1504390315.5,286046998.7,N
1504390335.4,286046998.3,N
1504390355.2,286047000.8,N
1504390375.0,286047002.3,N
1504390375.9,286047002.3,N
1504390395.8,286047002.7,N
1504390415.6,286047000.1,N
1504390435.4,286047002.6,N
1504390455.3,286047001.0,N
1504390475.1,286046998.7,N
1504390476.0,286046998.7,N
1504390495.8,286047000.0,N
1504390515.6,286047000.4,N
1504390535.5,286047002.7,N
1504390555.3,286047000.5,N
1504390575.1,286046998.9,N
1504390595.9,286046999.8,N
1504390615.7,286047005.9,N
1504390635.5,286047002.9,N
1504390655.4,286047005.7,N
1504390675.2,286047004.4,N
1504390695.0,286047001.3,N
1504390695.9,286047001.3,N
1504390715.8,286047002.3,N
1504390735.6,286047000.9,N
1504390755.4,286047000.6,N
1504390775.3,286047001.0,N
1504390795.1,286046998.5,N
1504390796.0,286046998.5,N
1504390815.8,286047001.0,N
1504390835.7,286046999.9,N
1504390855.5,286047002.0,N
1504390875.3,286047003.1,N
1504390895.1,286047005.3,N
1504390915.9,286047004.6,N
1504390935.7,286047001.8,N
1504390955.5,286047003.8,N
1504390975.4,286047002.4,N
1504390995.2,286046999.8,N
1504391015.0,286047002.5,N
1504391015.9,286047002.5,N
1504391035.8,286047002.7,N
1504391055.6,286047003.2,N
1504391075.4,286047004.3,N
1504391095.3,286047004.9,N
1504391115.1,286047004.7,N
1504391116.0,286047004.7,N
1504391135.8,286047005.7,N
1504391155.7,286047001.6,N
1504391175.5,286047000.4,N
1504391195.3,286047001.5,N
1504391215.2,286047003.4,N
1504391235.9,286047003.4,N
1504391255.7,286047004.0,N
1504391275.5,286047001.4,N
1504391295.4,286047003.9,N
1504391315.2,286047004.3,N
1504391335.0,286047001.6,N
1504391335.9,286047001.6,N
1504391355.8,286047004.3,N
1504391375.6,286047005.6,P
1504391395.5,286047003.8,N
1504391415.3,286047004.7,P
1504391435.1,286047005.9,P
1504391455.9,286046999.4,N
1504391475.7,286046997.4,N
1504391495.5,286047000.0,N
1504391515.3,286046997.0,N
1504391535.2,286046995.2,N
1504391555.0,286046996.9,N
1504391555.9,286046996.9,N
1504391575.7,286046999.2,N
1504391595.6,286047001.9,N
1504391615.4,286047002.2,N
1504391635.2,286047000.1,N
1504391655.1,286047001.3,N
1504391656.0,286047001.3,N
1504391675.8,286047000.3,N
1504391695.6,286046998.9,N
1504391715.5,286046997.5,N
1504391735.3,286046997.1,N
1504391755.1,286046999.4,N
1504391775.9,286046996.8,N
1504391795.7,286046997.6,N
1504391815.5,286046998.8,N
1504391835.3,286046999.4,N
1504391855.2,286046996.5,N
1504391875.0,286046996.9,N
1504391875.9,286046996.9,N
1504391895.7,286046998.1,N
1504391915.6,286046998.1,N
1504391935.4,286047001.1,N
1504391955.2,286046999.0,N
1504391975.1,286046999.6,N
1504391976.0,286046999.6,N
1504391995.8,286046999.2,N
1504392015.6,286046999.4,N
1504392035.5,286046999.0,N
1504392055.3,286047000.8,N
1504392075.1,286046999.0,N
1504392095.9,286046996.7,N
1504392115.7,286046996.0,N
1504392135.5,286046998.2,N
1504392155.4,286046999.9,N
1504392175.2,286047000.9,N
1504392195.0,286047001.2,N
1504392195.9,286047001.2,N
1504392215.7,286047000.4,N
1504392235.6,286047001.1,N
1504392255.4,286047000.2,N
1504392275.2,286047000.7,N
1504392295.1,286047003.9,N
1504392296.0,286047003.9,N
1504392315.8,286047004.8,N
1504392335.6,286047005.5,N
1504392355.5,286047005.7,N
1504392375.3,286047006.7,N
1504392395.1,286047008.9,P
1504392415.9,286047004.7,N
1504392435.7,286047004.2,N
1504392455.5,286047006.0,N
1504392475.4,286047007.6,N
1504392495.2,286047007.3,N
1504392515.0,286047007.0,N
1504392515.9,286047007.0,N
1504392535.8,286047005.1,N
1504392555.6,286047003.5,N
1504392575.4,286047004.0,N
1504392595.2,286047005.9,N
1504392615.1,286047005.0,N
1504392616.0,286047005.0,N
1504392635.8,286047010.8,P
1504392655.7,286047004.3,N
1504392675.5,286047001.3,N
1504392695.3,286047000.4,N
1504392715.2,286047001.6,N
1504392735.9,286047005.9,N
1504392755.7,286047001.6,N
1504392775.5,286047000.1,N
1504392795.4,286046998.6,N
1504392815.2,286046998.6,N
1504392835.0,286046997.2,N
1504392835.9,286046997.2,N
1504392855.8,286046998.8,N
1504392875.6,286047000.7,N
1504392895.4,286047002.4,N
1504392915.3,286046999.0,N
1504392935.1,286046998.6,N
1504392936.0,286046998.6,N
1504392955.8,286047000.8,N
1504392975.7,286046998.2,N
1504392995.5,286046998.3,N
1504393015.3,286046998.6,N
1504393035.1,286047002.5,N
1504393055.9,286047000.5,N
1504393075.7,286046997.1,N
1504393095.5,286046994.6,N
1504393115.4,286046993.8,N
1504393135.2,286046997.9,N
1504393155.0,286046997.9,N
1504393155.9,286046997.9,N
1504393175.8,286046997.6,N
1504393195.6,286046994.9,N
